Résultats de la compétition "CO Moyenne Distance 21 mars en Forêt de Marly (78)" du 21-03-2009 organisée par la ligue IF
     
  Télécharger le fichier CSV.  
     
     

 Circuit "Circuit D"

Licence Nom Prénom Temps CN
précédent
Score sur
la course
Différence
2100MORLONMarie0:30:3149475748+801
2723PALCAUM-Violaine0:30:4651585701+543
922PREVOSTPascale0:33:2054695262-207
2717HABERKORNValérie0:33:2052345262+28
702WYMERIsabelle0:33:2652605246-14
2920ANTOINEChristine0:33:3752045218+14
7715SANDEVOIRClaire0:34:4347905052+262
13076MARCHEGAYTiphane0:36:0946834852+169
15847BACKSCHEIDEREmilie0:36:2855374810-727
9932BASSETIsia0:36:3056644805-859
706BACHEREdith0:36:5050374762-275
2782REMOUETM-Pierre0:36:5846634745+82
11307BEAUVISAGELauriane0:37:0443544732+378
8108LELOUPAnouk0:37:4245564652+96
16050SCHILLINGMarion0:37:4639154644+729
6753HUEBERNicole0:37:5248194632-187
1928CHAILLARDMarketa0:39:1843134463+150
17067MANIEREMarie0:39:4646284411-217
12124CHABALClaire0:40:1143884365-23
18312GERBEAUXNathanaëlle0:40:4036064313+707
5436FLAMBEAUMathilde0:40:4646404302-338
13637KORCHAKLena0:41:1740704249+179
9924BOICHUTIsabelle0:41:5148394191-648
13478KORCHAKNicole0:42:0540624168+106
4751ROIRANDLine0:42:1048764160-716
9192ZEQUESVirginie0:42:2038244143+319
9145ROCHERAdèle0:43:0839394066+127
7259SUTTERAriane0:43:1642374054-183
1487MARCHESINSylvie0:43:3845194020-499
886GIRECamille0:43:4241244014-110
7409LE ROUXAnne-Francoise0:44:0341993982-217
17071VANHAUWAERTClaire0:44:1034543971+517
7045LOTERIELaurine0:44:1038463971+125
17577FACHAUXAngélique0:44:1536363964+328
8868BRAMASRenee0:44:2035293956+427
1241FALGAChristina0:44:3233523939+587
13937ERTELKelly0:44:3740543931-123
2415SOULARDJuliette0:44:48N/A3915N/A
19136TANTARTDelphine0:44:5536993905+206
3354BONNEAUCatherine0:44:5830483901+853
12768LOGELucie0:45:0534333890+457
9077DALLA-COSTAChristia0:45:3534513848+397
18611LANQUETINCéline0:45:3633783846+468
14911LAMINETTEPauline0:46:1236833796+113
12771OBSTETARAnne0:46:1240803796-284
738POURREValerie0:46:4142673757-510
274FIGUIEREValerie0:46:4242783756-522
841GATYDaniele0:46:5839403734-206
13692HAURYEvelyne0:47:0342543728-526
2401DEVILLENelly0:47:2845613695-866
20246MONNERIECharlotte0:47:3338653689-176
2730PERECatherine0:47:4638823672-210
15582CIRAUDOAndrea0:47:4634593672+213
9235CORDEIRO MENDESMyriam0:47:5437443662-82
9427LERICHEClotilde0:47:5946713655-1016
3651VAGNERChristine0:48:1741613633-528
13674BLUMMarie0:48:3045393616-923
10502PELLETIERGenevieve0:48:3243933614-779
13270ROUXCatherine0:48:3336053613+8
17618ECKESElise0:48:3524473610+1163
813COMBETAnnie0:48:4641853597-588
9897MORELHelene0:48:4837723594-178
17681MAIRECamille0:49:1935323557+25
1701MALATRAYNicole0:49:2324523552+1100
18632CUVILLIERSPerrine0:49:3535453537-8
10077POURREMarion0:49:4328213528+707
6478D'HARREVILLEAnne0:49:4936853521-164
7044LOTERIEMurielle0:50:0140453507-538
363THIERRY-FISCHERChri0:50:1331733493+320
6612ABELMartine0:50:2541803479-701
12441PHILLIPSCannelle0:50:3229113471+560
14246CARRIERValerie0:50:4633583455+97
9438MANSUYLaurette0:50:5934903440-50
20870RANNOUCaroline0:51:32N/A3404N/A
7787MORLONEmilie0:51:4131403394+254
20131ATTARDIsabelle0:52:01N/A3372N/A
14884CONIELAnne0:52:0428373369+532
10496DUPOIRIEUXSophie0:52:3138173340-477
16070RICHINMarion0:52:3334303338-92
3288ARNOULDChantal0:52:5635323314-218
14738BIHELJulia0:53:1033393299-40
17406CAMPBELLJane0:53:2441623285-877
7703RORAIsabelle0:53:3536333273-360
9406AVEDIKIANRachel0:53:5529593253+294
9933BASSETSylvie0:54:1145753237-1338
11344CORDEIRO MENDESCamille0:54:1533983233-165
15479MORELEugenie0:54:2432373224-13
18827CRETEAngélique0:54:3930333209+176
12443SPILKANatacha0:54:4731603202+42
14886CONIELLise0:54:5928253190+365
9904AGUILLEVeronique0:55:0029663189+223
11328GRAUERHeloise0:55:2939173161-756
19096VISSAULTAudrey0:55:5424493138+689
10639BOULANGERIsabelle0:56:2929453105+160
20439GOLECZoé0:56:31N/A3103N/A
14907BLAISEClaire0:56:4326713092+421
17633LAPEYREFrederique0:57:1033753068-307
633DUBROCAMonique0:57:2745153053-1462
2761PAPILLONFrancoise0:57:3729983044+46
16283BEUVESolveig0:57:59N/A3025N/A
3674CHALOPINCatherine0:58:3335012996-505
1152DELIFrancoise0:59:0933582965-393
20054MORILLONKatherine0:59:1129702964-6
12646BLUMVirginie0:59:1439772961-1016
2927CALANDOTMichelle0:59:3028202948+128
14885CONIELMarie0:59:3927202940+220
12715BOCQUETPascale1:00:2631182902-216
5497COCAULTYvonne1:00:5331062881-225
11369GUIGNARDM-Christine1:01:1431302864-266
8725GAILLARDAnnie1:01:2229052858-47
701ABISSEGisele1:01:5133982836-562
16530LABAUNEOdile1:02:0034522829-623
18373BROTHIERChristine1:02:3325392804+265
2888MOULIEREM-Bernadett1:03:0428362781-55
2446RIFFARDM-Lucie1:03:0727352779+44
7182BERGERM-Jose1:04:2425682724+156
8536BEAUVIRLaurence1:04:5325502703+153
18977GUINOTJoelle1:05:0520732695+622
19601GILLETAnnabelle1:05:4319872669+682
16755PONCETCatherine1:06:0322762656+380
1948POULAINOdile1:06:2726952640-55
20407FERNANDEZAlexia1:06:42N/A2630N/A
7520BOUCHESylvie1:06:5732992620-679
4671POGUPaulette1:07:3323452597+252
20215SIXPauline1:07:4216552591+936
2070GOUYERTherese1:08:2126092566-43
6886FRANTZFrancoise1:08:4434322552-880
19500MICHELETFabienne1:09:42N/A2516N/A
12072VALOISLaetitia1:09:5925492506-43
3302JEANPIERREM-Therese1:10:1633122496-816
20590CRESPINAline1:10:50N/A2476N/A
13645LEGRANDMurielle1:11:1221672463+296
10081TORZ-DRUONMagali1:11:1627182461-257
21354PEPIN-DANISSENAlanna1:11:43N/A2446N/A
2004TESSIERAriane1:12:1124342430-4
20483MEYERCatherine1:12:3017282419+691
13740BEAUVISAGEFabienne1:13:4726732377-296
17201LAMINETTEM-Odile1:15:0619892335+346
20448DIDOUSusanna1:17:0623132275-38
17781DEVERLYCecile1:17:4417332256+523
16129THIEBAUTEvelyne1:18:2225582238-320
17082SCHAMBERGERAnne1:19:1923522211-141
21152COTTENCEAUMarie1:19:44N/A2200N/A
21321FLEURIERMarine1:21:55N/A2141N/A
14245RICHARDNicole1:22:2831362127-1009
11705GIRARDLaurence1:24:1617362081+345
15630DIRRINGERM-Claude1:25:3530042049-955
340FISCHERM-Dominique1:26:4719712021+50
10897PARISDominique1:30:1633631943-1420
4392DODINGenevieve1:30:5220891930-159
17397AVIRONM-Therese1:33:3821671873-294
2439MASSONPatricia1:35:4219451833-112
21118PROISYChristine1:36:16N/A1822N/A
15894LUDEWIG-JAMESCarol1:45:2323831664-719
18142LE NAOURGaelleN/A26190-2619
11368LAUNEYNoellaN/A19750-1975
20213DECOOPMANClémentineN/A20970-2097
6610CHANTELOUAnnieN/A52720-5272
20283GOUNANDEmelineN/A24170-2417
1400HERMETM-PierreN/A27590-2759
310JOLYMauricetteN/A26750-2675

  Indice de confiance du circuit (moyenne des différences entre CN et score sur la course des 3 à 10 premiers) : 37






 Retour